Location: Niedergestelen
(46.3129°N, 7.7822°E)
Time: 16:25:39
(UTC+00:00)

AQUARIUS - Pass Details

Date: 01 December 2020
Orbit: 651 x 652 km, 98.0° (Epoch: 27 January)

Event Time Altitude Azimuth Distance (km) Brightness Sun altitude
Rises 16:49:30 0° 163° (SSE) 2,959 7.6 -11.0°
Reaches altitude 10° 16:51:42 10° 163° (SSE) 2,053 6.8 -11.3°
Maximum altitude 16:56:12 84° 75° (ENE) 662 4.1 -12.1°
Drops below altitude 10° 17:00:43 10° 348° (NNW) 2,070 6.7 -12.8°
Sets 17:02:56 0° 348° (NNW) 2,986 7.5 -13.2°
